St. Petersburg Airport, FL

7:31 PM EST on November 18, 2017 (GMT -0500)
Saint Petersburg-Clearwater International

Weather History for KPIE - November, 2013

Change the Weather History Date:

Sunday, November 24, 2013

  Actual Average Record
Temperature  
Mean Temperature 65 °F -  
Max Temperature 70 °F 75 °F 87 °F (1985)
Min Temperature 60 °F 60 °F 35 °F (1970)
Growing Degree Days 15 (Base 50)    
Moisture  
Dew Point 59 °F    
Average Humidity 79    
Maximum Humidity 90    
Minimum Humidity 68    
Precipitation  
Precipitation 0.00 in - - ()
Sea Level Pressure  
Sea Level Pressure 30.14 in    
Wind  
Wind Speed 11 mph (NE)    
Max Wind Speed 17 mph    
Max Gust Speed 26 mph    
Visibility 10 miles    
Events      
Averages and records for this station are not official NWS values.
T = Trace of Precipitation, MM = Missing Value Source: NWS Daily Summary

Daily Weather History Graph

Daily Weather History Graph

Search for Another Location

Airport or City:

Trip Planner

Search our weather history database for the weather conditions in past years. The results will help you decide how hot, cold, wet, or windy it might be!

Date:

Astronomy

Nov. 24, 2013 Rise Set
Actual Time 6:59 AM EST 5:35 PM EST
Civil Twilight 6:34 AM EST 6:00 PM EST
Nautical Twilight 6:05 AM EST 6:29 PM EST
Astronomical Twilight 5:37 AM EST 6:57 PM EST
Moon 11:43 PM EST (11/24) 12:00 PM EST (11/24)
Length of Visible Light 11h 26m
Length of Day
10h 36m
Waning Gibbous, 61% of the Moon is Illuminated
Nov 24
Waning Gibbous
Nov 25
Last Quarter
Dec 2
New
Dec 9
First Quarter
Dec 17
Full

Hourly Weather History & Observations

Time (EST) Temp. Dew Point Humidity Pressure Visibility Wind Dir Wind Speed Gust Speed Precip Events Conditions
12:53 AM 70.0 °F 66.9 °F 90% 30.06 in 10.0 mi North 6.9 mph - N/A   Clear
1:53 AM 70.0 °F 66.9 °F 90% 30.07 in 10.0 mi North 9.2 mph - N/A   Clear
2:07 AM 69.8 °F 66.2 °F 88% 30.06 in 10.0 mi North 9.2 mph - N/A   Partly Cloudy
2:53 AM 69.1 °F 66.0 °F 90% 30.06 in 10.0 mi North 11.5 mph - N/A   Clear
3:07 AM 69.8 °F 66.2 °F 88% 30.06 in 10.0 mi North 10.4 mph - N/A   Partly Cloudy
3:53 AM 68.0 °F 64.9 °F 90% 30.05 in 10.0 mi NNE 9.2 mph - N/A   Partly Cloudy
4:19 AM 68.0 °F 64.4 °F 88% 30.06 in 10.0 mi NNE 8.1 mph - N/A   Scattered Clouds
4:38 AM 68.0 °F 64.4 °F 88% 30.06 in 10.0 mi North 9.2 mph - N/A   Mostly Cloudy
4:53 AM 68.0 °F 64.9 °F 90% 30.06 in 10.0 mi North 6.9 mph - N/A   Overcast
5:53 AM 68.0 °F 64.0 °F 87% 30.08 in 10.0 mi North 12.7 mph - N/A   Overcast
6:38 AM 68.0 °F 62.6 °F 83% 30.10 in 10.0 mi North 12.7 mph 20.7 mph N/A   Overcast
6:53 AM 68.0 °F 63.0 °F 84% 30.10 in 10.0 mi NNE 12.7 mph 20.7 mph N/A   Overcast
7:06 AM 66.2 °F 62.6 °F 88% 30.11 in 10.0 mi NNE 10.4 mph 20.7 mph N/A   Overcast
7:53 AM 66.0 °F 61.0 °F 84% 30.12 in 10.0 mi NNE 11.5 mph - N/A   Overcast
8:53 AM 66.9 °F 60.1 °F 79% 30.14 in 10.0 mi NE 11.5 mph 17.3 mph N/A   Overcast
9:19 AM 66.2 °F 60.8 °F 83% 30.15 in 10.0 mi NE 10.4 mph - N/A   Overcast
9:53 AM 66.9 °F 60.1 °F 79% 30.15 in 10.0 mi NE 12.7 mph 21.9 mph N/A   Overcast
10:53 AM 66.0 °F 57.9 °F 75% 30.17 in 10.0 mi ENE 10.4 mph 18.4 mph N/A   Overcast
11:53 AM 68.0 °F 59.0 °F 73% 30.15 in 10.0 mi ENE 15.0 mph 21.9 mph N/A   Overcast
12:53 PM 69.1 °F 59.0 °F 70% 30.14 in 10.0 mi ENE 11.5 mph 19.6 mph N/A   Overcast
1:53 PM 69.1 °F 59.0 °F 70% 30.13 in 10.0 mi NE 10.4 mph 21.9 mph N/A   Overcast
2:53 PM 68.0 °F 59.0 °F 73% 30.14 in 10.0 mi ENE 11.5 mph 20.7 mph N/A   Overcast
3:53 PM 68.0 °F 57.0 °F 68% 30.15 in 10.0 mi NE 17.3 mph 24.2 mph N/A   Overcast
4:36 PM 66.2 °F 55.4 °F 68% 30.17 in 10.0 mi NE 16.1 mph 24.2 mph N/A   Overcast
4:53 PM 64.9 °F 55.0 °F 70% 30.17 in 10.0 mi ENE 17.3 mph 26.5 mph N/A   Overcast
5:53 PM 63.0 °F 53.1 °F 70% 30.19 in 10.0 mi ENE 15.0 mph 24.2 mph N/A   Mostly Cloudy
6:08 PM 62.6 °F 53.6 °F 72% 30.19 in 10.0 mi ENE 15.0 mph 24.2 mph N/A   Scattered Clouds
6:53 PM 62.1 °F 52.0 °F 70% 30.21 in 10.0 mi NE 16.1 mph 21.9 mph N/A   Partly Cloudy
7:53 PM 61.0 °F 51.1 °F 70% 30.22 in 10.0 mi NE 16.1 mph 26.5 mph N/A   Partly Cloudy
8:29 PM 60.8 °F 51.8 °F 72% 30.24 in 10.0 mi NE 15.0 mph 23.0 mph N/A   Mostly Cloudy
8:53 PM 60.1 °F 51.1 °F 72% 30.24 in 10.0 mi NE 15.0 mph 20.7 mph N/A   Overcast
9:21 PM 60.8 °F 51.8 °F 72% 30.24 in 10.0 mi NE 13.8 mph 26.5 mph N/A   Scattered Clouds
9:53 PM 60.1 °F 51.1 °F 72% 30.24 in 10.0 mi NE 13.8 mph 24.2 mph N/A   Clear
10:53 PM 60.1 °F 51.1 °F 72% 30.23 in 10.0 mi ENE 12.7 mph 21.9 mph N/A   Clear
11:53 PM 60.1 °F 51.1 °F 72% 30.23 in 10.0 mi ENE 12.7 mph 20.7 mph N/A   Clear